Wind_Speed
9 8 6 6 4 3 3 4 6 6 6 7 9 11 13 10 10 13 12 10 10 9 10 12 10 11 12 12 12 12 13 13 13 11 10 12 11 12 12 11 11 11 11 11 11 11 11 11 11
7 7 5 5 4 5 11 5 6 7 9 10 10 12 15 6 10 10 13 13 13 11 13 12 13 14 14 14 14 14 13 12 13 12 14 14 13 13 13 13 14 14 13 13 12 13 13 13 13
7 6 6 6 5 7 8 10 9 10 11 12 16 14 16 16 13 13 16 17 16 15 14 15 16 17 17 17 17 17 17 17 17 17 17 17 17 16 16 16 17 17 16 16 16 16 15 15 15
7 8 7 7 9 7 11 9 12 13 12 12 16 22 10 18 16 17 18 19 19 19 19 19 20 21 21 21 21 21 21 21 22 21 20 21 21 21 19 20 19 20 21 21 20 19 19 19 19
8 8 10 11 12 11 12 13 14 15 15 12 16 24 19 15 17 18 21 22 23 22 17 22 21 22 22 23 22 23 23 23 23 23 23 23 24 24 24 24 24 24 25 25 25 24 23 23 22
11 12 13 15 13 14 12 15 16 18 18 14 16 24 24 17 22 23 24 23 27 21 25 22 24 25 26 26 26 26 27 26 26 25 25 25 25 26 26 26 27 26 27 28 29 28 28 27 26
13 14 15 16 18 17 17 17 17 20 18 16 20 25 24 17 24 25 26 27 25 27 28 25 26 29 28 30 29 29 29 30 29 29 30 30 28 28 28 28 28 28 29 29 31 30 31 31 30
16 17 17 17 19 18 18 19 19 22 22 21 22 26 26 23 24 25 27 29 29 27 30 30 29 29 30 31 31 31 32 33 33 34 34 34 34 33 33 32 31 31 30 31 32 32 33 33 33
18 19 18 17 20 19 20 22 18 23 26 20 21 23 24 26 25 29 26 30 29 26 31 32 32 33 34 34 36 37 36 36 36 35 36 36 36 36 35 33 33 33 34 34 33 34 35 34 34
19 18 17 17 18 20 20 22 22 23 25 22 23 23 23 24 27 30 29 33 35 34 34 35 37 38 39 40 41 41 41 41 40 40 40 40 38 38 38 38 39 38 39 39 39 38 37 36 37
18 17 17 18 19 21 22 23 21 22 22 21 24 25 27 28 31 34 35 36 39 40 41 41 43 45 46 47 46 47 47 47 47 46 45 45 44 45 44 43 40 44 40 43 46 41 37 39 38
16 17 17 18 19 20 21 23 22 21 26 27 28 30 32 33 33 35 37 40 41 41 43 45 46 48 49 51 51 52 53 53 53 54 54 53 50 49 48 46 43 44 44 40 46 49 32 35 36
16 16 16 16 17 18 19 22 28 23 27 29 31 32 33 35 38 38 40 42 44 44 45 47 50 52 54 56 57 57 57 57 57 57 57 57 55 53 52 51 46 46 46 49 44 22 37 38 39
14 14 14 15 18 19 23 28 28 28 27 30 33 32 33 39 41 43 47 50 52 54 55 58 59 59 59 60 60 60 61 63 63 62 61 60 58 56 55 53 52 49 49 51 50 50 47 42 43
16 16 18 14 20 21 24 30 31 34 33 34 40 45 40 41 47 48 53 57 59 61 63 66 66 65 65 66 66 67 69 68 68 70 70 69 66 64 62 60 57 55 53 53 53 51 50 48 45
19 22 22 24 22 24 26 28 33 37 43 40 44 49 54 54 54 57 63 67 69 73 76 78 77 78 78 77 76 73 72 74 75 75 76 76 76 72 70 68 65 61 60 58 57 55 53 51 50
15 18 22 26 31 28 30 28 33 39 44 48 53 56 60 63 66 68 73 76 77 79 81 84 85 88 87 88 86 83 82 77 78 81 81 82 81 80 79 76 73 70 67 65 64 60 57 54 52
23 25 28 30 31 33 37 40 43 49 53 58 64 68 73 76 78 80 83 86 90 88 90 90 92 93 95 95 91 89 86 83 81 84 86 86 85 85 85 86 82 77 75 71 69 68 63 57 55
24 28 32 35 40 45 46 51 56 58 65 67 68 71 75 78 84 88 91 86 86 92 99 99 95 95 94 91 87 84 84 79 80 85 88 88 87 85 86 83 82 82 78 78 76 72 69 64 57
29 34 38 42 46 52 53 56 60 63 72 75 78 81 83 84 83 87 92 95 95 95 95 97 95 89 89 89 86 82 78 76 77 80 86 90 90 88 85 82 83 83 81 80 79 76 73 70 65
38 40 43 48 50 54 55 54 71 79 81 85 89 91 86 87 91 94 91 84 87 86 83 84 84 78 77 73 69 66 66 66 67 68 73 79 83 84 84 83 82 80 80 79 78 78 76 72 67
39 42 46 49 49 51 67 64 79 86 86 90 92 90 89 91 92 92 86 82 79 72 71 71 68 65 63 62 61 60 59 57 58 60 62 66 72 75 77 79 78 78 79 77 74 72 70 70 66
43 44 41 47 53 61 72 78 76 78 88 91 87 88 91 93 91 85 77 76 76 69 65 63 62 59 55 53 51 51 51 51 52 53 55 58 60 63 67 71 71 68 71 73 73 69 67 67 61
44 45 47 55 64 70 74 72 80 81 75 70 76 84 88 83 77 77 71 71 63 56 51 49 48 46 43 45 44 44 42 42 44 47 50 51 53 56 58 59 62 66 66 62 63 66 62 66 66
45 52 59 65 73 69 75 80 87 74 61 68 76 80 78 80 78 76 74 62 50 41 37 37 37 40 42 42 39 38 36 37 37 36 38 40 45 48 50 52 52 54 56 58 60 58 59 60 66
55 61 69 75 74 76 78 84 86 79 78 78 76 74 76 75 74 73 50 43 36 34 34 36 37 37 38 39 38 39 38 36 34 32 34 35 35 37 38 41 45 47 49 51 54 56 57 60 51
55 65 74 76 80 85 89 87 76 76 69 61 67 69 71 71 67 51 34 31 31 33 37 39 40 39 39 38 37 36 36 34 32 34 30 29 30 28 30 34 40 40 43 48 49 49 53 59 56
62 73 76 81 87 91 92 87 86 73 64 69 66 61 59 58 48 33 31 30 28 33 36 40 43 42 36 35 35 33 32 31 30 29 24 26 24 22 22 25 33 34 31 34 38 43 44 43 45
68 74 78 82 89 92 92 92 74 74 64 54 56 53 50 44 37 33 31 28 30 34 37 41 45 45 33 31 33 31 30 27 26 20 19 18 18 18 21 25 24 27 28 27 28 33 37 44 42
69 76 82 90 90 85 81 89 66 58 52 49 47 40 40 41 33 33 33 31 30 35 40 45 49 47 35 31 30 28 27 23 17 15 15 13 18 20 22 19 20 22 27 29 30 33 34 41 39
Wind_Direction
63 53 65 75 85 74 350 3 297 290 297 293 297 293 285 294 302 311 306 302 296 297 294 283 279 281 276 277 279 281 278 275 274 280 274 276 277 279 279 286 287 292 295 297 302 304 302 303 302
36 33 30 19 31 326 302 279 296 300 304 302 290 285 283 304 286 296 295 297 298 302 296 297 295 288 286 287 290 287 286 287 286 286 283 284 283 282 283 284 285 283 284 283 285 286 290 293 295
9 4 356 347 334 325 314 318 314 305 302 301 301 287 295 297 299 297 293 293 293 296 292 288 287 285 288 289 291 290 293 293 295 295 294 291 291 291 291 288 288 286 288 287 285 282 285 288 291
340 337 331 320 307 302 309 319 303 302 303 304 292 296 298 296 301 296 289 289 289 290 290 290 292 291 293 292 292 292 291 290 292 294 294 294 292 292 290 291 288 288 287 288 283 279 280 283 284
318 320 313 306 302 297 305 298 294 292 294 304 293 301 305 293 297 292 292 294 296 298 295 294 293 292 290 289 287 287 285 285 287 288 288 288 290 291 291 289 289 287 287 286 285 283 281 280 282
315 314 308 304 305 297 303 289 292 294 288 293 294 288 303 317 300 300 298 298 297 299 295 292 291 290 288 285 283 283 282 282 282 281 280 281 281 283 283 281 283 284 284 285 284 283 282 281 281
307 305 300 297 302 297 299 298 297 289 298 289 296 289 308 300 296 295 292 293 288 294 293 291 290 287 286 286 286 285 284 284 283 282 281 281 280 279 280 279 279 281 283 284 284 284 283 282 282
300 296 292 295 293 302 298 299 302 297 298 304 302 305 311 305 296 296 293 297 300 295 290 293 289 285 286 285 285 286 285 284 283 283 282 280 280 280 278 278 278 278 276 278 281 282 282 282 284
293 290 298 291 294 298 297 298 300 299 302 313 301 299 300 298 300 294 297 294 293 289 292 291 290 289 287 286 285 284 283 282 282 281 280 280 278 277 277 277 279 281 280 278 275 275 276 277 278
289 291 289 289 290 293 294 295 299 301 300 301 298 297 294 295 295 295 298 298 298 299 295 294 293 291 291 291 289 288 287 285 283 280 279 279 277 275 276 278 283 283 282 280 275 271 270 273 275
292 293 294 293 292 293 295 295 297 298 301 303 303 301 301 300 301 302 301 300 298 300 298 296 294 294 293 291 291 289 287 286 285 284 282 277 277 278 278 279 278 281 281 285 272 273 270 275 276
293 295 294 296 297 298 299 299 299 306 307 305 306 306 307 306 302 302 302 302 301 299 299 298 296 294 293 292 292 291 289 287 286 286 283 281 280 279 279 278 278 270 281 275 296 274 268 275 277
296 295 297 300 300 302 304 304 301 306 304 306 304 305 308 306 305 308 307 307 305 302 299 298 296 295 293 291 290 289 288 287 285 284 282 281 280 279 278 276 275 275 275 276 274 279 290 281 279
303 307 309 311 307 310 308 305 308 308 306 305 300 302 310 310 310 309 309 307 304 302 301 301 300 295 290 287 285 285 284 283 281 281 280 280 279 278 278 278 276 272 272 273 276 278 282 278 280
307 304 300 306 306 315 316 310 310 308 309 312 316 307 309 306 304 301 303 300 298 296 295 297 298 299 293 287 282 279 278 277 276 276 275 274 274 275 274 274 272 273 271 270 274 277 278 280 278
312 311 316 316 317 314 314 314 312 314 310 315 312 309 306 303 301 301 300 299 296 297 296 295 293 291 294 295 288 282 276 274 272 271 269 269 270 268 269 270 270 269 268 268 267 268 271 272 274
300 306 312 313 316 318 315 315 313 309 307 314 312 309 307 302 299 299 301 300 301 301 300 298 294 293 291 290 290 286 281 274 271 267 265 265 263 263 264 264 264 264 264 265 265 264 264 264 268
320 318 318 317 314 312 314 314 315 313 311 310 309 308 306 307 305 303 301 300 297 297 298 299 298 295 292 290 288 284 279 275 269 266 263 262 262 261 261 261 262 262 261 260 261 262 261 261 262
320 320 321 319 316 314 318 321 317 313 314 313 312 314 313 312 311 311 308 303 299 297 297 298 298 294 291 288 284 279 275 270 266 262 261 262 261 260 259 258 258 259 260 259 257 256 258 258 258
324 321 322 321 321 319 318 319 319 318 321 323 320 319 315 314 311 308 308 303 299 296 295 294 294 290 286 284 281 278 275 269 264 261 259 259 260 259 257 256 256 255 255 256 257 255 254 255 255
321 321 320 320 318 317 320 320 324 328 328 324 321 318 316 311 311 308 304 299 297 294 294 293 291 290 289 287 285 283 279 275 269 265 261 259 259 258 257 255 253 252 253 252 253 254 253 251 250
319 321 320 319 318 324 332 321 330 329 322 318 316 314 312 310 308 304 301 297 298 297 296 294 294 293 291 290 289 286 282 277 273 271 266 260 259 258 257 254 253 251 249 248 249 249 251 250 249
315 315 318 323 324 328 329 332 331 318 312 311 308 307 308 305 301 300 298 298 299 300 296 295 296 296 295 291 287 284 283 279 273 268 264 262 258 257 255 256 254 253 251 246 245 245 245 246 247
317 317 322 326 330 334 331 325 321 315 309 301 302 302 302 298 294 296 298 300 301 300 296 296 297 298 298 298 297 294 289 289 282 275 267 261 257 256 255 253 253 252 252 251 245 240 239 240 243
325 324 326 327 328 328 327 325 324 318 309 306 303 299 295 294 300 300 304 303 302 303 302 303 303 302 301 300 300 297 295 289 289 288 281 269 258 252 250 251 251 250 248 246 243 240 234 234 234
325 328 328 327 324 323 329 328 324 319 312 307 302 296 296 297 299 300 305 305 305 306 307 307 309 308 304 301 298 298 297 294 292 292 292 276 262 249 244 246 248 248 247 245 241 235 226 226 225
323 326 326 324 325 325 327 328 313 309 309 295 290 290 293 296 299 306 309 308 308 308 312 317 319 317 311 306 301 299 299 296 296 295 290 277 255 232 234 247 247 245 245 243 240 236 231 227 229
316 324 327 327 324 321 320 323 317 317 305 299 302 299 297 301 307 307 308 305 304 307 315 321 323 322 313 306 302 301 301 300 298 298 288 275 243 244 256 253 251 250 249 246 239 233 230 225 226
319 325 326 322 322 319 319 321 321 312 310 306 296 299 304 309 311 312 308 307 307 310 318 322 323 323 316 304 300 303 305 303 306 301 290 253 250 259 255 246 251 245 239 229 221 220 217 209 211
325 327 324 322 321 319 317 320 317 309 312 310 309 291 304 306 315 316 314 311 311 315 320 322 325 324 318 315 302 304 307 307 307 306 289 266 263 266 244 247 246 239 217 211 205 195 201 211 213
Height
5878 5877 5876 5876 5880 5877 5875 5876 5875 5874 5875 5874 5874 5873 5870 5870 5870 5871 5869 5867 5868 5868 5866 5866 5865 5865 5865 5864 5862 5863 5862 5862 5861 5860 5860 5861 5860 5860 5860 5859 5860 5859 5859 5859 5858 5858 5858 5856 5857
5878 5877 5878 5878 5878 5876 5874 5874 5874 5874 5873 5872 5873 5871 5868 5870 5869 5869 5867 5866 5866 5866 5865 5864 5863 5863 5863 5862 5861 5860 5860 5859 5859 5859 5859 5859 5858 5858 5858 5857 5857 5857 5857 5857 5855 5856 5855 5854 5854
5878 5878 5878 5877 5877 5876 5874 5873 5873 5873 5872 5871 5868 5867 5866 5865 5866 5866 5865 5864 5863 5863 5863 5862 5861 5861 5860 5860 5859 5859 5858 5858 5857 5856 5856 5855 5855 5856 5855 5855 5855 5854 5854 5853 5853 5853 5852 5852 5851
5879 5878 5878 5877 5875 5875 5873 5874 5872 5871 5870 5870 5867 5862 5867 5864 5864 5863 5862 5861 5861 5861 5860 5860 5859 5858 5857 5857 5856 5855 5854 5854 5853 5853 5852 5851 5851 5851 5851 5851 5850 5850 5850 5849 5849 5849 5849 5848 5847
5878 5877 5877 5875 5874 5874 5873 5872 5870 5869 5868 5869 5866 5860 5862 5863 5862 5860 5858 5857 5856 5855 5858 5854 5854 5853 5852 5851 5850 5850 5849 5849 5848 5848 5847 5847 5846 5845 5845 5846 5846 5845 5845 5844 5844 5844 5844 5844 5843
5876 5876 5875 5873 5872 5871 5872 5869 5868 5867 5865 5866 5865 5859 5858 5861 5857 5856 5855 5855 5851 5853 5850 5852 5850 5848 5847 5845 5845 5844 5844 5843 5842 5841 5841 5841 5840 5839 5839 5840 5840 5840 5840 5839 5839 5839 5839 5839 5839
5874 5873 5872 5870 5869 5869 5868 5867 5866 5864 5865 5864 5862 5857 5859 5860 5856 5854 5852 5849 5849 5848 5847 5848 5845 5842 5841 5840 5839 5839 5838 5838 5837 5836 5835 5835 5834 5834 5833 5833 5833 5833 5833 5833 5833 5834 5833 5833 5833
5872 5871 5869 5868 5866 5866 5865 5864 5863 5861 5861 5861 5860 5857 5855 5855 5852 5851 5848 5848 5847 5845 5842 5842 5840 5838 5836 5835 5834 5833 5832 5832 5831 5831 5830 5829 5828 5828 5827 5827 5826 5826 5827 5827 5827 5827 5827 5827 5828
5869 5867 5866 5865 5863 5863 5861 5860 5861 5858 5856 5859 5856 5853 5851 5848 5847 5843 5843 5840 5840 5840 5836 5835 5834 5832 5831 5831 5828 5826 5826 5825 5825 5823 5823 5822 5822 5821 5820 5821 5821 5820 5820 5820 5820 5820 5819 5819 5820
5865 5865 5863 5862 5860 5859 5858 5857 5856 5855 5852 5850 5849 5848 5847 5845 5842 5839 5839 5835 5834 5834 5833 5831 5828 5826 5825 5822 5821 5821 5819 5818 5817 5816 5815 5814 5814 5813 5814 5815 5815 5814 5813 5811 5810 5810 5809 5810 5812
5862 5862 5861 5859 5858 5856 5855 5853 5853 5851 5850 5848 5846 5845 5843 5842 5840 5836 5835 5833 5830 5828 5825 5824 5822 5819 5817 5815 5815 5811 5810 5808 5808 5806 5806 5805 5805 5804 5805 5806 5809 5804 5802 5802 5796 5801 5803 5804 5803
5860 5859 5858 5857 5855 5854 5852 5850 5850 5849 5845 5844 5842 5840 5838 5835 5833 5831 5828 5825 5823 5822 5819 5816 5814 5810 5808 5805 5803 5801 5798 5797 5796 5795 5793 5793 5793 5794 5794 5796 5798 5792 5793 5791 5775 5787 5793 5795 5796
5857 5856 5855 5854 5853 5851 5849 5847 5843 5846 5842 5839 5836 5835 5832 5828 5825 5823 5820 5818 5814 5812 5810 5808 5804 5801 5798 5795 5792 5789 5787 5785 5783 5782 5781 5780 5780 5781 5782 5784 5787 5788 5788 5783 5787 5757 5783 5786 5785
5854 5854 5853 5852 5850 5849 5846 5841 5841 5840 5838 5835 5831 5830 5828 5823 5819 5816 5811 5807 5802 5799 5797 5795 5792 5790 5786 5781 5778 5775 5774 5771 5769 5768 5767 5766 5766 5767 5768 5770 5773 5776 5776 5773 5772 5774 5775 5778 5776
5851 5850 5848 5849 5845 5845 5841 5837 5835 5831 5830 5827 5821 5816 5820 5818 5812 5808 5802 5796 5791 5786 5781 5777 5772 5770 5768 5766 5763 5760 5757 5754 5754 5753 5751 5749 5751 5751 5752 5755 5759 5761 5764 5764 5763 5764 5765 5766 5768
5848 5846 5843 5841 5841 5839 5837 5833 5828 5824 5818 5820 5816 5810 5805 5803 5799 5795 5789 5781 5775 5768 5763 5758 5754 5749 5746 5742 5740 5738 5735 5734 5734 5734 5731 5732 5735 5735 5734 5737 5741 5744 5748 5751 5754 5755 5756 5757 5758
5846 5842 5840 5837 5834 5835 5832 5832 5829 5822 5818 5814 5806 5800 5793 5787 5782 5778 5770 5762 5754 5745 5741 5736 5730 5725 5722 5719 5715 5713 5711 5708 5708 5708 5709 5710 5711 5714 5716 5718 5720 5725 5729 5734 5737 5742 5744 5746 5747
5843 5842 5839 5836 5834 5831 5828 5824 5821 5814 5809 5803 5794 5787 5780 5773 5766 5761 5755 5747 5735 5723 5717 5712 5703 5698 5694 5691 5688 5685 5684 5683 5681 5681 5682 5683 5685 5689 5691 5698 5700 5704 5709 5714 5718 5724 5728 5733 5735
5840 5838 5836 5833 5828 5823 5821 5817 5811 5805 5795 5788 5780 5772 5765 5757 5746 5736 5729 5723 5710 5699 5687 5682 5673 5667 5661 5660 5656 5654 5654 5654 5655 5654 5655 5657 5658 5661 5666 5671 5675 5681 5687 5693 5698 5704 5710 5716 5722
5837 5834 5831 5828 5822 5815 5811 5806 5795 5787 5777 5764 5756 5750 5742 5733 5725 5711 5700 5690 5681 5669 5655 5652 5646 5641 5634 5632 5628 5625 5625 5626 5625 5626 5628 5628 5631 5636 5640 5644 5650 5656 5662 5668 5678 5684 5691 5699 5705
5831 5827 5822 5817 5812 5804 5797 5796 5776 5766 5756 5746 5737 5730 5723 5710 5699 5687 5677 5666 5654 5644 5634 5625 5623 5617 5606 5607 5603 5601 5600 5600 5601 5602 5604 5604 5604 5609 5614 5619 5625 5634 5639 5646 5652 5662 5671 5679 5687
5824 5819 5813 5808 5801 5796 5779 5778 5766 5745 5738 5729 5718 5708 5699 5686 5676 5663 5653 5645 5636 5627 5614 5604 5600 5596 5589 5585 5582 5579 5579 5581 5580 5580 5581 5583 5583 5585 5588 5593 5601 5609 5617 5625 5632 5640 5650 5658 5667
5818 5813 5807 5799 5791 5781 5771 5759 5753 5735 5716 5703 5689 5680 5671 5662 5655 5648 5639 5627 5617 5609 5599 5591 5582 5577 5573 5568 5566 5563 5560 5558 5559 5560 5561 5562 5564 5565 5568 5571 5577 5585 5592 5603 5612 5623 5630 5641 5648
5809 5804 5798 5788 5780 5773 5760 5750 5738 5729 5714 5695 5677 5664 5649 5641 5635 5628 5620 5611 5601 5595 5586 5579 5572 5566 5561 5555 5551 5548 5546 5542 5541 5541 5541 5543 5545 5548 5551 5553 5557 5565 5572 5582 5591 5602 5612 5621 5632
5797 5789 5782 5780 5769 5770 5754 5744 5719 5697 5687 5675 5661 5648 5637 5622 5616 5609 5601 5594 5587 5580 5575 5569 5564 5559 5552 5547 5542 5537 5534 5531 5528 5527 5524 5525 5528 5531 5534 5537 5542 5548 5554 5562 5569 5581 5594 5602 5611
5787 5779 5770 5760 5756 5749 5747 5730 5714 5687 5669 5651 5637 5623 5616 5611 5605 5597 5588 5582 5576 5571 5567 5561 5556 5551 5545 5538 5533 5528 5524 5522 5519 5517 5514 5512 5513 5516 5522 5526 5529 5534 5539 5545 5552 5562 5575 5586 5599
5778 5769 5757 5744 5739 5719 5716 5720 5700 5687 5670 5649 5631 5618 5607 5600 5593 5585 5579 5574 5569 5564 5559 5553 5547 5541 5535 5529 5524 5520 5516 5513 5510 5508 5504 5503 5503 5507 5513 5516 5519 5523 5527 5532 5538 5549 5561 5571 5585
5765 5756 5745 5731 5711 5704 5702 5696 5669 5658 5644 5626 5617 5609 5598 5590 5583 5577 5571 5568 5563 5558 5553 5547 5540 5533 5527 5521 5516 5512 5508 5504 5502 5499 5497 5496 5498 5503 5506 5508 5511 5515 5519 5523 5529 5539 5549 5560 5574
5754 5745 5729 5719 5709 5683 5664 5668 5656 5636 5621 5611 5599 5595 5586 5579 5574 5570 5566 5561 5556 5551 5546 5540 5533 5524 5518 5512 5508 5504 5501 5497 5494 5492 5491 5492 5495 5497 5499 5500 5504 5507 5511 5516 5523 5532 5541 5553 5565
5745 5733 5718 5699 5690 5679 5655 5642 5632 5617 5608 5600 5590 5584 5580 5574 5570 5564 5560 5555 5550 5545 5539 5532 5525 5516 5509 5504 5500 5497 5494 5492 5489 5488 5488 5489 5490 5491 5492 5496 5500 5503 5507 5511 5518 5526 5536 5548 5560